HULIANWANG DIGUI 16J

Last updated on Sat Dec 13 2025 00:02:09 GMT+0000 (Coordinated Universal Time)

1 67067U 25295J 25346.21271476 -.00000145 00000+0 64760-5 0 9997 2 67067 50.0044 14.4694 0010490 253.0387 106.9378 14.26361638 49
UTC large
Height (km)
Speed (km/s)
/
Latitude / Longitude
Inclination (degrees)
Orbital Period (minutes)
Azimuth
Elevation
Range (km)
Doppler Factor

Next 0 passes for location: London (51.5072 / 0.1276)

Sorry there are no passes over London.